DELTA 1 DEB, 14839

Orbit data source: Space-Track

DELTA 1 DEB, 14839 is space debris in LEO originally from a launch on Thu, 14 Jul 1977 UTC launched from the Air Force Eastern Test Range (AFETR). Debris objects in space refer to the collection of defunct objects orbiting the Earth. Examples of debris include non-operational satellites, rocket bodies, and fragments generated from explosions, collisions, or faulty payload assembly.

Loading next visibility...
Identifier
14839, 1977-065FU
Orbit
LEO
Country
Flag of USUS
Related business
Manufacturer
Unknown
Mission
Spacecraft
Bus & Motor
Unknown
Mass
Unknown
Launch date (UTC)
1977-07-14 (48 years ago)
Launch vehicle
Unknown
Launch site
Air Force Eastern Test Range (AFETR)
Object type
Payload
Rocket body
Debris
Shape & HBR
Unknown shape, 0.1 m
Radar Cross Section
Small (<0.1 m²)

Expand to show TLE details & history
Last TLE update: 1 day ago

TLE from 1 day ago
0 DELTA 1 DEB
1 14839U 77065FU  25351.36399272  .00001215  00000-0  39622-2 0  9990
2 14839  28.9978   5.7373 0977287 263.0212 107.6996 11.92527355138089
Epoch: 2025-12-17T08:44Z
TLE epoch observation values (Epoch: 2025-12-17T08:44:08.971Z)
Latitude
10.00715°
Longitude
166.94099°
Altitude
2,019.446 km
Speed
6.761 km/s
True Right ascension
01h 36m 51s
True Declination
9° 57' 26"
Sunlit
Object was in daylight at epoch
Visualization orbit readout
Latitude
Unknown
Longitude
Unknown
Altitude
Unknown
Speed
Unknown
Apparent Right ascension
Unknown
Apparent Declination
Unknown
Sunlit
N/A
Visualization observer readout
Local Sidereal Time
10:02:00
Azimuth
Unknown
Elevation
Unknown
Doppler factor
Unknown
Orbital elements
Apogee altitude
2,509.305 km
Perigee altitude
926.841 km
Semi-major axis
8,096.21 km
Eccentricity
0.09773
Inclination
28.9978°
RAAN
5.7373°
Arg. of periapsis
263.0212°
True anomaly
117.93143°
Mean anomaly
107.6996°
Eccentric anomaly
112.85927°
Mean motion
2.97934 °/min
Orbital period
120.83 mins
BSTAR
0.0039622
Loading maneuver chart data...
Computing Atmospheric mass density...

Documentation

Showing up to 5 results
|